Weather in selo Belidzhi

Russia / Republic of Dagestan     41°53′27″N   48°24′48″E
temp.,
°C
wind,
m/s
gust,
m/s
humid.,
%
clouds,
%
prec.,
mm/h
press.,
hPa
HPBL,
m
27 january, thu
thu2700:00+5nw667653 0.0 1015610
03:00+5nw577198 0.0 1014634
06:00+5nw101188100 0.2 1015791
09:00+4nnw121383100 0.3 1015840
12:00+4nnw11128150 0.0 1015761
15:00+4nnw111277100 0.0 1015884
18:00+4nnw121376100 0.0 10161009
21:00+4nnw131372100 0.1 10171196
28 january, fri
fri2800:00+4nnw141473100 0.1 10181244
03:00+4nnw121274100 0.1 10191187
06:00+4nnw11117196 0.0 10201030
09:00+4nw787080 0.1 10221007
12:00+4nnw436816 0.0 1022791
15:00+4n43655 0.0 1023687
18:00+4ne2259100 0.0 1023557
21:00+4sse3362100 0.0 1024793
29 january, sat
sat2900:00+4s44685 0.0 1023686
03:00+4sse346815 0.0 1023696
06:00+3ssw336995 0.0 1023392
09:00+3sse237499 0.1 1023407
12:00+4ene3492100 0.4 1021557
15:00+6n227741 0.6 1020543
18:00+6nw557815 0.0 1021545
21:00+6wnw6681100 0.0 1020483
30 january, sun
sun3000:00+6wnw45706 0.0 1020336
03:00+5sw22625 0.0 1019186
06:00+5wsw11585 0.0 1019139
09:00+6nw676999 0.0 1019526
12:00+6nnw887991 0.0 1019685
15:00+6nnw5577100 0.0 1017503
18:00+6nnw447438 0.0 1017399
21:00+6sw22740 0.0 1016271
31 january, mon
mon3100:00+5sse45765 0.0 1013248
03:00+5sse45720 0.0 1011298
06:00+5sse45740 0.0 1010285
09:00+5sse33750 0.0 1010240
12:00+6e12720 0.0 1009188
15:00+6nnw44710 0.0 1010289
18:00+6nnw22700 0.0 1011158
21:00+7nw812767 0.0 1013727